Date String (YYYY-MM-DD hh:mm:ss) UTC,Instrument flags,Ambient pressure (hPa),Sample flow (lpm),Bypass flow (lpm),Sample temperature (°C),Ambient temperature (°C),ASC tube jacket temperature (°C),LED temperature (°C),Box temperature (°C),Sample RH (%),Span deviation,Mass concentration (μg/m³),Mass concentration (μg/m³),Mass concentration (μg/m³)
DateTimeUTC,F1_M11,P_M11,Q1_M11,Q2_M11,T1_M11,T2_M11,T3_M11,T4_M11,T5_M11,U1_M11,ZSPAN_M11,X0_M11,X2_M11,X1_M11
2021-11-01 06:00:00,,0828.8,5.00,0.00,25.1,24.3,00.0,34.2,27.0,18.6,0000.0,0008.68,0005.74,0005.39
2021-11-01 06:01:00,,0828.7,4.99,0.00,25.1,24.3,00.0,34.2,27.0,18.6,0000.0,0008.58,0005.82,0005.44
2021-11-01 06:02:00,,0828.9,5.01,0.00,25.1,24.3,00.0,34.2,26.9,18.6,0000.0,0008.61,0005.84,0005.48
2021-11-01 06:03:00,,0828.7,4.99,0.00,25.1,24.3,00.0,34.2,26.9,18.6,0000.0,0008.66,0005.89,0005.52
2021-11-01 06:04:00,,0828.9,4.99,0.00,25.1,24.2,00.0,34.2,26.9,18.6,0000.0,0008.67,0005.93,0005.54
2021-11-01 06:05:00,,0828.9,5.00,0.00,25.1,24.2,00.0,34.2,26.9,18.6,0000.0,0008.57,0005.93,0005.55
2021-11-01 06:06:00,,0828.8,5.00,0.00,25.1,24.2,00.0,34.2,26.9,18.7,0000.0,0008.60,0005.94,0005.56
2021-11-01 06:07:00,,0828.7,4.99,0.00,25.1,24.2,00.0,34.2,26.9,18.6,0000.0,0009.18,0005.94,0005.57
2021-11-01 06:08:00,,0828.8,5.01,0.00,25.1,24.2,00.0,34.2,26.9,18.6,0000.0,0009.00,0005.97,0005.58
2021-11-01 06:09:00,,0829.0,5.01,0.00,25.1,24.2,00.0,34.1,26.9,18.6,0000.0,0009.42,0005.98,0005.58
2021-11-01 06:10:00,,0829.1,5.00,0.00,25.1,24.3,00.0,34.1,26.9,18.6,0000.0,0009.44,0005.98,0005.59
2021-11-01 06:11:00,,0828.8,5.00,0.00,25.1,24.3,00.0,34.1,26.9,18.6,0000.0,0009.54,0005.96,0005.60
2021-11-01 06:12:00,,0828.7,5.02,0.00,25.1,24.3,00.0,34.1,26.9,18.6,0000.0,0009.45,0005.94,0005.61
2021-11-01 06:13:00,,0829.0,4.99,0.00,25.1,24.3,00.0,34.1,26.9,18.6,0000.0,0009.50,0005.95,0005.61
2021-11-01 06:14:00,,0828.7,4.99,0.00,25.1,24.3,00.0,34.1,26.9,18.6,0000.0,0009.56,0005.96,0005.61
2021-11-01 06:15:00,,0828.5,5.00,0.00,25.1,24.3,00.0,34.1,26.9,18.6,0000.0,0009.55,0005.95,0005.63
2021-11-01 06:16:00,,0828.5,5.00,0.00,25.1,24.3,00.0,34.1,26.9,18.6,0000.0,0009.56,0005.96,0005.63
2021-11-01 06:17:00,,0828.5,5.00,0.00,25.1,24.2,00.0,34.1,26.9,18.6,0000.0,0009.41,0005.95,0005.63
2021-11-01 06:18:00,,0828.7,4.99,0.00,25.1,24.2,00.0,34.1,26.9,18.7,0000.0,0008.69,0005.92,0005.61
2021-11-01 06:19:00,,0829.1,5.00,0.00,25.1,24.2,00.0,34.1,26.9,18.6,0000.0,0008.65,0005.87,0005.59
2021-11-01 06:20:00,,0828.8,5.00,0.00,25.1,24.2,00.0,34.1,26.9,18.6,0000.0,0008.47,0005.87,0005.59
2021-11-01 06:21:00,,0828.7,5.00,0.00,25.1,24.3,00.0,34.1,26.9,18.6,0000.0,0008.50,0005.89,0005.59
2021-11-01 06:22:00,,0829.1,4.99,0.00,25.1,24.3,00.0,34.1,27.0,18.6,0000.0,0008.42,0005.91,0005.59
2021-11-01 06:23:00,,0828.8,5.01,0.00,25.1,24.3,00.0,34.1,26.9,18.6,0000.0,0008.40,0005.91,0005.60
2021-11-01 06:24:00,,0829.0,5.00,0.00,25.1,24.3,00.0,34.1,26.9,18.6,0000.0,0008.42,0005.94,0005.63
2021-11-01 06:25:00,,0828.9,5.00,0.00,25.1,24.3,00.0,34.1,26.9,18.6,0000.0,0008.64,0005.95,0005.66
2021-11-01 06:26:00,,0829.0,5.00,0.00,25.1,24.3,00.0,34.1,26.9,18.6,0000.0,0008.67,0005.98,0005.67
2021-11-01 06:27:00,,0828.8,5.00,0.00,25.1,24.2,00.0,34.1,26.9,18.6,0000.0,0008.71,0006.02,0005.70
2021-11-01 06:28:00,,0828.7,5.01,0.00,25.1,24.3,00.0,34.1,26.9,18.6,0000.0,0008.75,0006.05,0005.73
2021-11-01 06:29:00,,0828.7,4.99,0.00,25.1,24.3,00.0,34.1,26.9,18.6,0000.0,0008.79,0006.09,0005.77
2021-11-01 06:30:00,,0828.7,5.01,0.00,25.1,24.3,00.0,34.1,26.9,18.6,0000.0,0008.75,0006.14,0005.82
2021-11-01 06:31:00,,0828.7,4.99,0.00,25.1,24.3,00.0,34.1,26.9,18.6,0000.0,0008.66,0006.19,0005.86
2021-11-01 06:32:00,,0828.8,5.00,0.00,25.1,24.3,00.0,34.1,26.9,18.6,0000.0,0008.65,0006.20,0005.89
2021-11-01 06:33:00,,0829.0,5.00,0.00,25.1,24.3,00.0,34.1,27.0,18.6,0000.0,0008.68,0006.23,0005.92
2021-11-01 06:34:00,,0828.7,5.01,0.00,25.1,24.3,00.0,34.1,27.0,18.6,0000.0,0008.69,0006.25,0005.95
2021-11-01 06:35:00,,0828.9,5.01,0.00,25.1,24.3,00.0,34.1,27.0,18.6,0000.0,0008.64,0006.25,0005.96
2021-11-01 06:36:00,,0829.0,5.00,0.00,25.1,24.3,00.0,34.1,27.0,18.6,0000.0,0008.42,0006.25,0005.97
2021-11-01 06:37:00,,0828.9,5.00,0.00,25.1,24.3,00.0,34.1,27.0,18.6,0000.0,0008.31,0006.24,0005.97
2021-11-01 06:38:00,,0828.7,5.00,0.00,25.1,24.2,00.0,34.1,26.9,18.6,0000.0,0008.32,0006.25,0005.98
2021-11-01 06:39:00,,0828.7,5.00,0.00,25.1,24.2,00.0,34.1,27.0,18.5,0000.0,0008.38,0006.26,0005.98
2021-11-01 06:40:00,,0828.9,5.01,0.00,25.1,24.2,00.0,34.1,27.0,18.5,0000.0,0009.21,0006.26,0005.97
2021-11-01 06:41:00,,0828.8,5.00,0.00,25.1,24.2,00.0,34.1,26.9,18.6,0000.0,0009.49,0006.27,0005.98
2021-11-01 06:42:00,,0828.7,4.99,0.00,25.1,24.2,00.0,34.1,26.9,18.6,0000.0,0009.40,0006.27,0005.98
2021-11-01 06:43:00,,0828.9,5.01,0.00,25.1,24.2,00.0,34.1,26.9,18.6,0000.0,0009.37,0006.27,0006.00
2021-11-01 06:44:00,,0828.9,4.99,0.00,25.1,24.2,00.0,34.1,26.9,18.6,0000.0,0009.34,0006.27,0006.00
2021-11-01 06:45:00,,0828.9,4.99,0.00,25.1,24.2,00.0,34.1,26.9,18.6,0000.0,0009.29,0006.26,0006.00
2021-11-01 06:46:00,,0828.9,5.01,0.00,25.1,24.2,00.0,34.1,26.9,18.6,0000.0,0009.41,0006.31,0006.00
2021-11-01 06:47:00,,0829.0,4.99,0.00,25.1,24.2,00.0,34.1,26.9,18.7,0000.0,0009.47,0006.34,0006.00
2021-11-01 06:48:00,,0829.0,5.00,0.00,25.0,24.2,00.0,34.1,26.9,18.7,0000.0,0009.56,0006.38,0006.01
2021-11-01 06:49:00,,0828.9,5.01,0.00,25.1,24.2,00.0,34.1,26.8,18.7,0000.0,0009.56,0006.37,0006.00
2021-11-01 06:50:00,,0828.8,5.01,0.00,25.0,24.2,00.0,34.1,26.9,18.7,0000.0,0009.62,0006.39,0006.00
2021-11-01 06:51:00,,0829.4,4.99,0.00,25.0,24.2,00.0,34.1,26.9,18.7,0000.0,0009.15,0006.43,0006.01
2021-11-01 06:52:00,,0828.7,4.99,0.00,25.0,24.2,00.0,34.1,26.9,18.8,0000.0,0008.63,0006.45,0006.03
2021-11-01 06:53:00,,0828.8,5.01,0.00,25.0,24.2,00.0,34.1,26.9,18.8,0000.0,0008.60,0006.44,0006.03
2021-11-01 06:54:00,,0828.9,4.99,0.00,25.0,24.2,00.0,34.1,26.9,18.8,0000.0,0008.57,0006.43,0006.02
2021-11-01 06:55:00,,0828.8,5.00,0.00,25.0,24.2,00.0,34.1,26.8,18.9,0000.0,0008.54,0006.42,0006.00
2021-11-01 06:56:00,,0829.0,4.99,0.00,25.0,24.2,00.0,34.1,26.8,18.9,0000.0,0008.68,0006.45,0006.00
2021-11-01 06:57:00,,0829.3,5.02,0.00,25.0,24.1,00.0,34.1,26.8,18.9,0000.0,0008.94,0006.44,0006.00
2021-11-01 06:58:00,,0828.8,4.99,0.00,25.0,24.1,00.0,34.1,26.8,18.9,0000.0,0008.93,0006.42,0006.00
2021-11-01 06:59:00,,0828.8,5.01,0.00,25.0,24.1,00.0,34.1,26.8,18.9,0000.0,0008.91,0006.41,0006.00
